Regional Weather Roundup
Issued by NWS

Home | Current Version | Previous Version | Graphics & Text | Print | Product List | Glossary On
Versions: 1 2 3 4 5 6 7 8 9 10 11 12 13 14 15 16 17 18 19 20 21 22 23 24 25 26 27 28 29 30 31 32 33 34 35 36 37 38 39 40 41 42 43 44 45 46 47 48 49 50
000
ASUS43 KTOP 152259
RWRKS

WEATHER ROUNDUP FOR KANSAS
NATIONAL WEATHER SERVICE GOODLAND KS
600 PM CDT TUE APR 15 2014

NOTE:  "FAIR" INDICATES FEW OR NO CLOUDS BELOW 12,000 FEET WITH NO
SIGNIFICANT WEATHER AND/OR OBSTRUCTIONS TO VISIBILITY.

KSZ001>006-013>018-027>032-041>047-160000-
NORTHWEST KANSAS

CITY           SKY/WX    TMP DP  RH WIND       PRES   REMARKS
GOODLAND       PTSUNNY   64  17  16 S18G24    29.77F
HAYS           PTSUNNY   64  23  20 SW25      29.85F
HILL CITY      CLOUDY    66  19  16 SW15G29   29.80F
RUSSELL        PTSUNNY   64  23  21 S26G32    29.85F
$$

KSZ061>065-074>080-084>089-160000-
SOUTHWEST KANSAS

CITY           SKY/WX    TMP DP  RH WIND       PRES   REMARKS
DODGE CITY     PTSUNNY   65  21  18 S23       29.88F
ELKHART          N/A     66  21  18 SW16        N/A
GARDEN CITY    CLOUDY    65  21  18 S18G28    29.84F
GREAT BEND     PTSUNNY   63  23  22 S20G31    29.88F
LIBERAL        MOSUNNY   68  21  17 SW18G26   29.87F
$$

KSZ066>073-081>083-090>101-160000-
SOUTHEAST KANSAS

CITY           SKY/WX    TMP DP  RH WIND       PRES   REMARKS
CHANUTE        SUNNY     57  26  30 S9        30.07F
COFFEYVILLE    SUNNY     59  24  26 S12       30.07F
HUTCHINSON     PTSUNNY   64  17  16 S20       29.95F
MEDICINE LODGE   N/A     66  17  15 S14G24    29.94F
NEWTON         PTSUNNY   61  19  20 S20       30.01F
PARSONS        SUNNY     59  24  26 S6        30.08F
WICHITA INTL   PTSUNNY   62  17  17 S17       29.98F
WICHITA JABRA  CLOUDY    61  17  18 S15G23    29.99F
WINFIELD       PTSUNNY   61  17  18 S14       30.03F
$$

KSZ007>012-019>026-033>040-048>060-102>105-160000-
NORTHEAST KANSAS

CITY           SKY/WX    TMP DP  RH WIND       PRES   REMARKS
CONCORDIA      CLOUDY    61  20  20 S23G29    29.89F
EMPORIA        PTSUNNY   60  21  22 S15       30.02F
LAWRENCE       MOSUNNY   57  28  33 S12       30.04F
MANHATTAN      PTSUNNY   61  20  20 S13G25    29.96F
OLATHE IND     MOSUNNY   53  25  33 S13       30.06F
OLATHE EXE     MOSUNNY   52  26  36 S13       30.06F
SALINA         PTSUNNY   64  19  17 S20G31    29.93F
TOPEKA BILLARD MOSUNNY   59  24  26 S14       30.01F
TOPEKA FORBES  MOSUNNY   57  26  30 S13       30.01F
$$



USA.gov is the U.S. government's official web portal to all federal, state and local government web resources and services.